This is the latest recevied weather packets stored in our database for station/object DB0BWL-1. If no packets are shown the sender has not sent any weather packets the latest 10 day(s).
| Time | Temp. | Humidity | Pressure | Rain* | Wind** | Luminosity | Snow |
|---|---|---|---|---|---|---|---|
| 1787851415 | 23.89° C | 47% | 996.9 hPa | - | - | - | - |
| 1787850514 | 23.89° C | 47% | 997.1 hPa | - | - | - | - |
| 1787849614 | 23.89° C | 47% | 997.2 hPa | - | - | - | - |
| 1787848713 | 23.89° C | 48% | 997.5 hPa | - | - | - | - |
| 1787847811 | 23.89° C | 47% | 997.5 hPa | - | - | - | - |
| 1787846965 | 23.33° C | 47% | 997.4 hPa | - | - | - | - |
| 1787846065 | 22.78° C | 49% | 997.5 hPa | - | - | - | - |
| 1787845164 | 22.78° C | 49% | 997.6 hPa | - | - | - | - |
| 1787844263 | 23.33° C | 49% | 997.8 hPa | - | - | - | - |
| 1787843362 | 22.78° C | 50% | 997.8 hPa | - | - | - | - |
| 1787842462 | 22.78° C | 50% | 997.8 hPa | - | - | - | - |
| 1787841561 | 22.78° C | 50% | 997.5 hPa | - | - | - | - |
| 1787840660 | 22.78° C | 50% | 997.8 hPa | - | - | - | - |
| 1787839760 | 22.78° C | 50% | 998.1 hPa | - | - | - | - |
| 1787838859 | 22.78° C | 50% | 998 hPa | - | - | - | - |
| 1787837959 | 22.78° C | 51% | 998 hPa | - | - | - | - |
| 1787837058 | 22.22° C | 53% | 998.1 hPa | - | - | - | - |
| 1787836158 | 22.22° C | 53% | 998.4 hPa | - | - | - | - |
| 1787835257 | 22.22° C | 53% | 998.5 hPa | - | - | - | - |
| 1787834357 | 22.78° C | 52% | 998.7 hPa | - | - | - | - |
| 1787833456 | 21.67° C | 54% | 998.6 hPa | - | - | - | - |
| 1787832555 | 21.67° C | 54% | 998.8 hPa | - | - | - | - |
| 1787831655 | 21.67° C | 53% | 999.1 hPa | - | - | - | - |
| 1787830754 | 21.11° C | 54% | 999.2 hPa | - | - | - | - |
| 1787829853 | 21.67° C | 54% | 999.4 hPa | - | - | - | - |
* Rain since midnight (hover to see other rain measurements)
** Current wind speed in m/s (hover to see current wind gust speed)